Location: Anciles
(42.5833°N, 0.5167°E)
Time: 14:34:49
(UTC+00:00)

YAOGAN 6 - Pass Details

Date: 10 December 2019
Orbit: 466 x 505 km, 97.0° (Epoch: 29 January)

Event Time Altitude Azimuth Distance (km) Brightness Sun altitude
Rises 17:37:57 0° 150° (SSE) 2,506 6.1 -13.1°
Reaches altitude 10° 17:40:04 10° 142° (SE) 1,640 5.0 -13.4°
Maximum altitude 17:43:21 38° 73° (ENE) 751 3.0 -14.0°
Drops below altitude 10° 17:46:42 10° 4° (N) 1,673 5.1 -14.6°
Sets 17:48:52 0° 357° (N) 2,566 6.1 -15.0°
